Tracking 18843 objects as of 21-November-2017
HD Live streaming from Space Station
objects crossing your sky now

COSMOS 1134

Track COSMOS 1134 now!
10-day predictions
COSMOS 1134 is classified as:


NORAD ID: 11542
Int'l Code: 1979-084E
Perigee: 1,461.2 km
Apogee: 1,490.1 km
Inclination: 74.0 °
Period: 115.3 minutes
Semi major axis: 7846 km
RCS: 0.6885 m2 (medium)
Launch date: September 25, 1979
Source: Commonwealth of Independent States (former USSR) (CIS)
Launch site: PLESETSK MISSILE AND SPACE COMPLEX (PKMTR)
aabbcc
Your satellite tracking list
Your tracking list is empty




NASA's NSSDC Master Catalog

Two Line Element Set (TLE):
1 11542U 79084E   17324.18427354 +.00000009 +00000-0 +16781-3 0  9997
2 11542 074.0242 200.3092 0018432 123.5056 341.0544 12.49032701739650
Source of the keplerian elements: AFSPC